ITY346 LIML-LICC

Flight info

Callsign ITY346
Flight time 1h 42m
Altitude 37000
Route LOGDI DCT OLNUK DCT LOMED DCT KUGIX DCT OST DCT AMANO DCT PELEN DCT UXUTA
Aircraft A320/M-SDE3FGHIRWY/LB1

Departure

Time 2026-05-04 19:26
Airport Milano Linate Airport (LIML)

Arrival

Time 2026-05-04 21:09
Airport Catania-Fontanarossa Airport (LICC)
Time Latitude Longitude Altitude Speed Heading
2026-05-04 19:12 45.45691 9.27892 360 ft 0 kts 90°
2026-05-04 19:20 45.45691 9.27893 360 ft 2 kts 90°
2026-05-04 19:20 45.45690 9.27939 360 ft 6 kts 98°
2026-05-04 19:20 45.45665 9.27975 363 ft 6 kts 159°
2026-05-04 19:21 45.45603 9.27980 363 ft 12 kts 179°
2026-05-04 19:21 45.45501 9.27978 360 ft 17 kts 181°
2026-05-04 19:21 45.45367 9.27956 366 ft 20 kts 207°
2026-05-04 19:21 45.45239 9.27873 363 ft 20 kts 186°
2026-05-04 19:22 45.45094 9.27877 362 ft 20 kts 176°
2026-05-04 19:22 45.44991 9.27891 360 ft 15 kts 174°
2026-05-04 19:22 45.44888 9.27924 364 ft 15 kts 163°
2026-05-04 19:22 45.44787 9.27946 364 ft 15 kts 174°
2026-05-04 19:23 45.44670 9.27960 360 ft 18 kts 175°
2026-05-04 19:23 45.44533 9.27972 360 ft 21 kts 177°
2026-05-04 19:23 45.44376 9.27987 362 ft 24 kts 177°
2026-05-04 19:23 45.44201 9.28003 362 ft 26 kts 174°
2026-05-04 19:24 45.44011 9.28027 362 ft 28 kts 176°
2026-05-04 19:24 45.43807 9.28047 360 ft 30 kts 174°
2026-05-04 19:24 45.43593 9.28069 361 ft 26 kts 177°
2026-05-04 19:24 45.43479 9.28068 361 ft 14 kts 200°
2026-05-04 19:25 45.43442 9.27945 362 ft 15 kts 262°
2026-05-04 19:25 45.43470 9.27821 362 ft 14 kts 332°
2026-05-04 19:25 45.43480 9.27818 365 ft 0 kts 356°
2026-05-04 19:26 45.43661 9.27803 362 ft 65 kts 356°
2026-05-04 19:26 45.44344 9.27719 363 ft 129 kts 355°
2026-05-04 19:26 45.45409 9.27591 483 ft 166 kts 354°
2026-05-04 19:26 45.46539 9.27516 1212 ft 162 kts
2026-05-04 19:27 45.47669 9.27654 1831 ft 169 kts
2026-05-04 19:27 45.48897 9.27869 2285 ft 183 kts
2026-05-04 19:27 45.50176 9.28080 2904 ft 186 kts
2026-05-04 19:27 45.51463 9.28409 3525 ft 191 kts 18°
2026-05-04 19:28 45.52622 9.29367 4157 ft 196 kts 40°
2026-05-04 19:28 45.53473 9.30888 4806 ft 198 kts 62°
2026-05-04 19:28 45.53892 9.32809 5220 ft 214 kts 84°
2026-05-04 19:28 45.53715 9.35019 5477 ft 238 kts 111°
2026-05-04 19:29 45.53180 9.36435 5714 ft 253 kts 129°
2026-05-04 19:29 45.51760 9.38034 6369 ft 268 kts 158°
2026-05-04 19:29 45.50010 9.38978 7223 ft 270 kts 160°
2026-05-04 19:29 45.48362 9.40274 8092 ft 275 kts 141°
2026-05-04 19:30 45.47133 9.42385 8942 ft 279 kts 126°
2026-05-04 19:30 45.46042 9.44688 9839 ft 281 kts 126°
2026-05-04 19:30 45.44944 9.47024 10531 ft 291 kts 126°
2026-05-04 19:30 45.43770 9.49512 10771 ft 314 kts 126°
2026-05-04 19:31 45.42508 9.52184 11031 ft 335 kts 126°
2026-05-04 19:31 45.41190 9.54972 11607 ft 343 kts 126°
2026-05-04 19:31 45.39843 9.57815 12260 ft 349 kts 126°
2026-05-04 19:31 45.38425 9.60655 12912 ft 354 kts 132°
2026-05-04 19:32 45.36670 9.63125 13555 ft 356 kts 144°
2026-05-04 19:32 45.34602 9.65093 14160 ft 360 kts 151°
2026-05-04 19:32 45.32450 9.66948 14752 ft 364 kts 151°
2026-05-04 19:32 45.30279 9.68830 15361 ft 367 kts 151°
2026-05-04 19:33 45.28089 9.70737 15948 ft 371 kts 150°
2026-05-04 19:33 45.25877 9.72664 16534 ft 375 kts 150°
2026-05-04 19:33 45.23743 9.74528 17106 ft 379 kts 150°
2026-05-04 19:33 45.21489 9.76494 17705 ft 382 kts 150°
2026-05-04 19:34 45.19215 9.78474 18310 ft 386 kts 150°
2026-05-04 19:34 45.16916 9.80471 18835 ft 389 kts 150°
2026-05-04 19:34 45.14599 9.82479 19378 ft 392 kts 151°
2026-05-04 19:34 45.12265 9.84494 19941 ft 394 kts 151°
2026-05-04 19:35 45.09920 9.86516 20509 ft 396 kts 151°
2026-05-04 19:35 45.07558 9.88554 21066 ft 399 kts 151°
2026-05-04 19:35 45.05185 9.90601 21611 ft 401 kts 151°
2026-05-04 19:35 45.02789 9.92664 22148 ft 403 kts 151°
2026-05-04 19:36 45.00384 9.94733 22666 ft 406 kts 151°
2026-05-04 19:36 44.97966 9.96813 23165 ft 408 kts 151°
2026-05-04 19:36 44.95533 9.98907 23606 ft 412 kts 151°
2026-05-04 19:36 44.93077 10.01019 23985 ft 415 kts 151°
2026-05-04 19:37 44.90600 10.03145 24362 ft 418 kts 152°
2026-05-04 19:37 44.88105 10.05279 24727 ft 421 kts 152°
2026-05-04 19:37 44.85629 10.07394 25073 ft 423 kts 152°
2026-05-04 19:37 44.83102 10.09552 25419 ft 426 kts 152°
2026-05-04 19:38 44.80561 10.11722 25759 ft 429 kts 152°
2026-05-04 19:38 44.78001 10.13905 26098 ft 431 kts 152°
2026-05-04 19:38 44.75427 10.16097 26433 ft 434 kts 152°
2026-05-04 19:38 44.72835 10.18297 26751 ft 437 kts 153°
2026-05-04 19:39 44.70290 10.20678 27047 ft 443 kts 146°
2026-05-04 19:39 44.67839 10.23327 27356 ft 446 kts 146°
2026-05-04 19:39 44.65371 10.25988 27640 ft 449 kts 146°
2026-05-04 19:39 44.62877 10.28674 27880 ft 454 kts 146°
2026-05-04 19:40 44.60366 10.31375 28235 ft 457 kts 147°
2026-05-04 19:40 44.57830 10.34093 28517 ft 459 kts 147°
2026-05-04 19:40 44.55281 10.36820 28794 ft 462 kts 147°
2026-05-04 19:40 44.52718 10.39559 29067 ft 464 kts 147°
2026-05-04 19:41 44.50140 10.42308 29320 ft 467 kts 147°
2026-05-04 19:41 44.47547 10.45069 29585 ft 470 kts 147°
2026-05-04 19:41 44.44937 10.47850 29837 ft 473 kts 147°
2026-05-04 19:41 44.42314 10.50642 30079 ft 475 kts 147°
2026-05-04 19:42 44.39678 10.53448 30308 ft 477 kts 147°
2026-05-04 19:42 44.37123 10.56432 30565 ft 481 kts 141°
2026-05-04 19:42 44.34666 10.59603 30857 ft 481 kts 141°
2026-05-04 19:42 44.32205 10.62770 31110 ft 481 kts 142°
2026-05-04 19:43 44.29739 10.65936 31389 ft 481 kts 142°
2026-05-04 19:43 44.27271 10.69098 31700 ft 481 kts 142°
2026-05-04 19:43 44.24840 10.72205 32016 ft 480 kts 142°
2026-05-04 19:43 44.22380 10.75343 32317 ft 479 kts 142°
2026-05-04 19:44 44.19922 10.78481 32629 ft 479 kts 142°
2026-05-04 19:44 44.17433 10.81655 32899 ft 479 kts 142°
2026-05-04 19:44 44.15010 10.84742 33189 ft 478 kts 142°
2026-05-04 19:44 44.12555 10.87870 33463 ft 478 kts 142°
2026-05-04 19:45 44.10102 10.90990 33760 ft 477 kts 143°
2026-05-04 19:45 44.07653 10.94096 34020 ft 477 kts 143°
2026-05-04 19:45 44.05202 10.97193 34301 ft 476 kts 143°
2026-05-04 19:45 44.02668 11.00111 34552 ft 469 kts 151°
2026-05-04 19:46 43.99914 11.02479 34776 ft 463 kts 158°
2026-05-04 19:46 43.97090 11.04618 35016 ft 462 kts 158°
2026-05-04 19:46 43.94269 11.06761 35250 ft 462 kts 157°
2026-05-04 19:46 43.91448 11.08907 35471 ft 462 kts 157°
2026-05-04 19:47 43.88629 11.11049 35686 ft 462 kts 157°
2026-05-04 19:47 43.85810 11.13188 35900 ft 462 kts 157°
2026-05-04 19:47 43.82999 11.15319 36113 ft 461 kts 157°
2026-05-04 19:47 43.80178 11.17452 36314 ft 461 kts 158°
2026-05-04 19:48 43.77363 11.19572 36511 ft 461 kts 158°
2026-05-04 19:48 43.74548 11.21689 36704 ft 461 kts 157°
2026-05-04 19:48 43.71732 11.23813 36898 ft 461 kts 157°
2026-05-04 19:48 43.68924 11.25934 37089 ft 461 kts 157°
2026-05-04 19:49 43.66109 11.28057 37115 ft 461 kts 157°
2026-05-04 19:49 43.60469 11.32298 37127 ft 463 kts 157°
2026-05-04 19:50 43.54767 11.36426 37127 ft 460 kts 163°
2026-05-04 19:50 43.48809 11.39519 37129 ft 458 kts 165°
2026-05-04 19:51 43.42835 11.42586 37123 ft 459 kts 165°
2026-05-04 19:51 43.36852 11.45656 37132 ft 459 kts 165°
2026-05-04 19:52 43.30870 11.48720 37134 ft 459 kts 165°
2026-05-04 19:52 43.24882 11.51792 37128 ft 460 kts 165°
2026-05-04 19:53 43.18887 11.54861 37126 ft 460 kts 165°
2026-05-04 19:53 43.12888 11.57906 37133 ft 460 kts 165°
2026-05-04 19:54 43.06885 11.60948 37132 ft 460 kts 165°
2026-05-04 19:54 43.00882 11.63988 37123 ft 460 kts 165°
2026-05-04 19:55 42.94916 11.67003 37127 ft 460 kts 165°
2026-05-04 19:55 42.88908 11.70024 37122 ft 461 kts 165°
2026-05-04 19:56 42.82886 11.73065 37129 ft 462 kts 165°
2026-05-04 19:56 42.76857 11.76105 37135 ft 462 kts 165°
2026-05-04 19:57 42.70815 11.79125 37137 ft 463 kts 165°
2026-05-04 19:57 42.64768 11.82146 37143 ft 463 kts 165°
2026-05-04 19:58 42.58716 11.85177 37135 ft 464 kts 165°
2026-05-04 19:58 42.52663 11.88202 37144 ft 464 kts 165°
2026-05-04 19:59 42.46603 11.91209 37149 ft 464 kts 165°
2026-05-04 19:59 42.40543 11.94217 37151 ft 464 kts 165°
2026-05-04 20:00 42.34742 11.97098 37144 ft 464 kts 165°
2026-05-04 20:00 42.28685 12.00091 37150 ft 463 kts 165°
2026-05-04 20:01 42.22626 12.03070 37152 ft 463 kts 165°
2026-05-04 20:01 42.16571 12.06056 37184 ft 464 kts 165°
2026-05-04 20:02 42.10511 12.09037 37198 ft 464 kts 165°
2026-05-04 20:02 42.04441 12.12011 37218 ft 464 kts 165°
2026-05-04 20:03 41.98376 12.14980 37223 ft 464 kts 165°
2026-05-04 20:03 41.92309 12.17949 37209 ft 464 kts 165°
2026-05-04 20:04 41.86231 12.20907 37132 ft 465 kts 165°
2026-05-04 20:04 41.80208 12.23905 37137 ft 467 kts 160°
2026-05-04 20:05 41.74383 12.27832 37126 ft 469 kts 157°
2026-05-04 20:05 41.68527 12.31815 37131 ft 469 kts 157°
2026-05-04 20:06 41.62701 12.35758 37137 ft 469 kts 157°
2026-05-04 20:06 41.56877 12.39696 37141 ft 469 kts 157°
2026-05-04 20:07 41.51087 12.43597 37122 ft 470 kts 157°
2026-05-04 20:07 41.45254 12.47534 37129 ft 470 kts 157°
2026-05-04 20:08 41.39421 12.51465 37134 ft 470 kts 157°
2026-05-04 20:08 41.33583 12.55378 37135 ft 470 kts 157°
2026-05-04 20:09 41.27748 12.59280 37127 ft 469 kts 157°
2026-05-04 20:09 41.21916 12.63181 37138 ft 469 kts 157°
2026-05-04 20:10 41.16084 12.67072 37144 ft 469 kts 157°
2026-05-04 20:10 41.10258 12.70962 37145 ft 469 kts 157°
2026-05-04 20:11 41.04428 12.74832 37125 ft 468 kts 157°
2026-05-04 20:11 40.98604 12.78686 37141 ft 468 kts 157°
2026-05-04 20:12 40.92779 12.82542 37128 ft 468 kts 157°
2026-05-04 20:12 40.86949 12.86398 37130 ft 469 kts 157°
2026-05-04 20:13 40.81153 12.90220 37118 ft 469 kts 157°
2026-05-04 20:13 40.75310 12.94062 37127 ft 469 kts 157°
2026-05-04 20:14 40.69459 12.97902 37130 ft 470 kts 157°
2026-05-04 20:14 40.63606 13.01735 37132 ft 470 kts 157°
2026-05-04 20:15 40.57749 13.05562 37125 ft 470 kts 157°
2026-05-04 20:15 40.51885 13.09388 37130 ft 471 kts 157°
2026-05-04 20:16 40.47012 13.12571 37130 ft 471 kts 157°
2026-05-04 20:16 40.41132 13.16406 37129 ft 472 kts 157°
2026-05-04 20:17 40.35237 13.20232 37114 ft 473 kts 157°
2026-05-04 20:17 40.29337 13.24044 37141 ft 473 kts 157°
2026-05-04 20:18 40.23438 13.27852 37150 ft 472 kts 157°
2026-05-04 20:18 40.17545 13.31659 37157 ft 472 kts 157°
2026-05-04 20:19 40.11655 13.35461 37146 ft 472 kts 158°
2026-05-04 20:19 40.05773 13.39235 37157 ft 471 kts 158°
2026-05-04 20:20 39.99896 13.42999 37160 ft 470 kts 158°
2026-05-04 20:20 39.94055 13.46734 36882 ft 471 kts 158°
2026-05-04 20:20 39.91112 13.48616 36533 ft 471 kts 158°
2026-05-04 20:21 39.88176 13.50496 36193 ft 472 kts 158°
2026-05-04 20:21 39.85224 13.52386 35859 ft 474 kts 158°
2026-05-04 20:21 39.79286 13.56178 35223 ft 477 kts 158°
2026-05-04 20:22 39.76303 13.58081 34909 ft 478 kts 158°
2026-05-04 20:22 39.73312 13.59983 34597 ft 479 kts 158°
2026-05-04 20:22 39.70309 13.61887 34288 ft 481 kts 158°
2026-05-04 20:22 39.67300 13.63791 33955 ft 482 kts 158°
2026-05-04 20:23 39.64286 13.65701 33595 ft 482 kts 158°
2026-05-04 20:23 39.61271 13.67610 33248 ft 482 kts 158°
2026-05-04 20:23 39.58252 13.69515 32905 ft 483 kts 158°
2026-05-04 20:23 39.55229 13.71420 32564 ft 483 kts 158°
2026-05-04 20:24 39.52206 13.73327 32229 ft 484 kts 158°
2026-05-04 20:24 39.49177 13.75240 31894 ft 484 kts 157°
2026-05-04 20:24 39.46148 13.77152 31566 ft 485 kts 157°
2026-05-04 20:24 39.43110 13.79068 31253 ft 486 kts 157°
2026-05-04 20:25 39.40071 13.80974 30921 ft 485 kts 157°
2026-05-04 20:25 39.37029 13.82857 30602 ft 485 kts 158°
2026-05-04 20:25 39.33977 13.84729 30291 ft 485 kts 158°
2026-05-04 20:25 39.30960 13.86567 29964 ft 487 kts 158°
2026-05-04 20:26 39.27885 13.88436 29589 ft 490 kts 158°
2026-05-04 20:26 39.24798 13.90313 29229 ft 491 kts 157°
2026-05-04 20:26 39.21705 13.92195 28871 ft 492 kts 157°
2026-05-04 20:26 39.18611 13.94082 28519 ft 492 kts 157°
2026-05-04 20:27 39.15547 13.95958 28168 ft 481 kts 157°
2026-05-04 20:27 39.12564 13.97788 27826 ft 468 kts 157°
2026-05-04 20:27 39.09659 13.99564 27488 ft 457 kts 157°
2026-05-04 20:27 39.06818 14.01295 27156 ft 447 kts 157°
2026-05-04 20:28 39.04032 14.02991 26826 ft 439 kts 158°
2026-05-04 20:28 39.01285 14.04656 26504 ft 435 kts 158°
2026-05-04 20:28 38.98551 14.06309 26180 ft 432 kts 158°
2026-05-04 20:28 38.95842 14.07947 25867 ft 430 kts 158°
2026-05-04 20:29 38.93142 14.09579 25545 ft 428 kts 158°
2026-05-04 20:29 38.90452 14.11201 25236 ft 427 kts 157°
2026-05-04 20:29 38.87771 14.12821 24929 ft 425 kts 157°
2026-05-04 20:29 38.85101 14.14436 24624 ft 423 kts 157°
2026-05-04 20:30 38.82448 14.16040 24323 ft 421 kts 157°
2026-05-04 20:30 38.79804 14.17638 24029 ft 419 kts 157°
2026-05-04 20:30 38.77168 14.19230 23732 ft 418 kts 157°
2026-05-04 20:30 38.74543 14.20817 23386 ft 416 kts 157°
2026-05-04 20:31 38.71935 14.22390 23052 ft 413 kts 157°
2026-05-04 20:31 38.69380 14.23924 22698 ft 410 kts 157°
2026-05-04 20:31 38.66801 14.25467 22355 ft 408 kts 157°
2026-05-04 20:31 38.64235 14.27004 22019 ft 406 kts 157°
2026-05-04 20:32 38.61684 14.28535 21690 ft 404 kts 157°
2026-05-04 20:32 38.59151 14.30058 21362 ft 401 kts 157°
2026-05-04 20:32 38.56631 14.31574 21038 ft 399 kts 157°
2026-05-04 20:32 38.54130 14.33072 20723 ft 396 kts 157°
2026-05-04 20:33 38.51637 14.34560 20430 ft 394 kts 157°
2026-05-04 20:33 38.49161 14.36035 20136 ft 392 kts 157°
2026-05-04 20:33 38.46697 14.37504 19847 ft 390 kts 157°
2026-05-04 20:33 38.44244 14.38968 19554 ft 388 kts 157°
2026-05-04 20:34 38.41803 14.40422 19273 ft 387 kts 157°
2026-05-04 20:34 38.39373 14.41870 18994 ft 385 kts 157°
2026-05-04 20:34 38.36953 14.43309 18716 ft 383 kts 157°
2026-05-04 20:34 38.34547 14.44739 18440 ft 381 kts 157°
2026-05-04 20:35 38.32156 14.46165 18125 ft 379 kts 157°
2026-05-04 20:35 38.29758 14.47525 17805 ft 374 kts 164°
2026-05-04 20:35 38.27238 14.48140 17495 ft 366 kts 181°
2026-05-04 20:35 38.24706 14.48114 17189 ft 363 kts 184°
2026-05-04 20:36 38.22186 14.48051 16881 ft 361 kts 184°
2026-05-04 20:36 38.19676 14.47979 16570 ft 360 kts 184°
2026-05-04 20:36 38.17175 14.47908 16269 ft 359 kts 184°
2026-05-04 20:36 38.14684 14.47839 15971 ft 357 kts 184°
2026-05-04 20:37 38.12205 14.47773 15674 ft 355 kts 184°
2026-05-04 20:37 38.09739 14.47710 15385 ft 354 kts 184°
2026-05-04 20:37 38.07285 14.47649 15096 ft 352 kts 184°
2026-05-04 20:37 38.04844 14.47588 14809 ft 350 kts 184°
2026-05-04 20:38 38.02414 14.47524 14531 ft 348 kts 184°
2026-05-04 20:38 37.99998 14.47459 14249 ft 347 kts 183°
2026-05-04 20:38 37.97594 14.47393 13964 ft 345 kts 184°
2026-05-04 20:38 37.95225 14.47330 13656 ft 344 kts 184°
2026-05-04 20:39 37.92840 14.47269 13344 ft 342 kts 183°
2026-05-04 20:39 37.90465 14.47209 13036 ft 341 kts 183°
2026-05-04 20:39 37.88101 14.47148 12726 ft 339 kts 183°
2026-05-04 20:39 37.85746 14.47087 12422 ft 338 kts 183°
2026-05-04 20:40 37.83403 14.47025 12124 ft 336 kts 183°
2026-05-04 20:40 37.81071 14.46963 11827 ft 334 kts 183°
2026-05-04 20:40 37.78751 14.46900 11528 ft 333 kts 183°
2026-05-04 20:40 37.76440 14.46841 11246 ft 331 kts 183°
2026-05-04 20:41 37.74140 14.46783 11146 ft 330 kts 183°
2026-05-04 20:41 37.71835 14.46726 11162 ft 332 kts 183°
2026-05-04 20:41 37.69525 14.46666 11163 ft 332 kts 183°
2026-05-04 20:41 37.67215 14.46603 11163 ft 332 kts 183°
2026-05-04 20:42 37.64902 14.46540 11165 ft 332 kts 183°
2026-05-04 20:42 37.62591 14.46630 11166 ft 333 kts 175°
2026-05-04 20:42 37.60304 14.47126 11165 ft 334 kts 167°
2026-05-04 20:42 37.58064 14.47915 11165 ft 334 kts 165°
2026-05-04 20:43 37.55825 14.48716 11164 ft 335 kts 165°
2026-05-04 20:43 37.53585 14.49517 11164 ft 335 kts 165°
2026-05-04 20:43 37.51342 14.50314 11155 ft 335 kts 165°
2026-05-04 20:43 37.49096 14.51110 11028 ft 336 kts 165°
2026-05-04 20:44 37.46855 14.51905 10637 ft 333 kts 165°
2026-05-04 20:44 37.44635 14.52697 10258 ft 330 kts 165°
2026-05-04 20:44 37.42432 14.53482 9866 ft 327 kts 165°
2026-05-04 20:44 37.40254 14.54255 9448 ft 324 kts 165°
2026-05-04 20:45 37.38095 14.55019 9035 ft 321 kts 165°
2026-05-04 20:45 37.35965 14.55794 8641 ft 317 kts 161°
2026-05-04 20:45 37.34011 14.57028 8240 ft 314 kts 145°
2026-05-04 20:45 37.32413 14.58860 7847 ft 310 kts 129°
2026-05-04 20:46 37.31278 14.61137 7456 ft 306 kts 113°
2026-05-04 20:46 37.30666 14.63669 7072 ft 301 kts 98°
2026-05-04 20:46 37.30592 14.66271 6690 ft 297 kts 83°
2026-05-04 20:46 37.30933 14.68796 6386 ft 290 kts 79°
2026-05-04 20:47 37.31291 14.71249 6128 ft 282 kts 79°
2026-05-04 20:47 37.31634 14.73637 5885 ft 274 kts 79°
2026-05-04 20:47 37.31965 14.75956 5627 ft 266 kts 80°
2026-05-04 20:47 37.32281 14.78178 5379 ft 258 kts 80°
2026-05-04 20:48 37.32597 14.80401 5137 ft 252 kts 80°
2026-05-04 20:48 37.32902 14.82548 5013 ft 249 kts 80°
2026-05-04 20:48 37.33201 14.84655 5008 ft 249 kts 81°
2026-05-04 20:48 37.33507 14.86795 5010 ft 249 kts 81°
2026-05-04 20:49 37.33812 14.88932 5010 ft 249 kts 81°
2026-05-04 20:49 37.34115 14.91070 5011 ft 249 kts 80°
2026-05-04 20:49 37.34418 14.93211 5008 ft 249 kts 80°
2026-05-04 20:49 37.34724 14.95352 5010 ft 249 kts 80°
2026-05-04 20:50 37.35031 14.97497 5010 ft 249 kts 80°
2026-05-04 20:50 37.35338 14.99643 5010 ft 249 kts 80°
2026-05-04 20:50 37.35645 15.01788 5008 ft 249 kts 80°
2026-05-04 20:50 37.35951 15.03934 5009 ft 249 kts 80°
2026-05-04 20:51 37.36255 15.06080 5010 ft 249 kts 80°
2026-05-04 20:51 37.36557 15.08227 5009 ft 249 kts 80°
2026-05-04 20:51 37.36859 15.10373 5009 ft 249 kts 80°
2026-05-04 20:51 37.37162 15.12522 5009 ft 249 kts 80°
2026-05-04 20:52 37.37463 15.14668 5008 ft 249 kts 80°
2026-05-04 20:52 37.37766 15.16817 5008 ft 249 kts 80°
2026-05-04 20:52 37.38069 15.18965 5007 ft 249 kts 80°
2026-05-04 20:52 37.38370 15.21114 5006 ft 249 kts 80°
2026-05-04 20:53 37.38668 15.23262 5004 ft 249 kts 80°
2026-05-04 20:53 37.38966 15.25410 5003 ft 249 kts 80°
2026-05-04 20:53 37.39263 15.27547 4999 ft 242 kts 80°
2026-05-04 20:53 37.39546 15.29559 4992 ft 228 kts 80°
2026-05-04 20:54 37.39814 15.31474 4890 ft 218 kts 81°
2026-05-04 20:54 37.40066 15.33306 4785 ft 208 kts 81°
2026-05-04 20:54 37.40310 15.35071 4681 ft 204 kts 81°
2026-05-04 20:54 37.40551 15.36820 4582 ft 203 kts 81°
2026-05-04 20:55 37.40793 15.38565 4482 ft 202 kts 81°
2026-05-04 20:55 37.41035 15.40305 4377 ft 202 kts 81°
2026-05-04 20:55 37.41273 15.42025 4277 ft 202 kts 81°
2026-05-04 20:55 37.41513 15.43764 4176 ft 202 kts 81°
2026-05-04 20:56 37.41751 15.45498 4075 ft 201 kts 81°
2026-05-04 20:56 37.41990 15.47232 3970 ft 201 kts 82°
2026-05-04 20:56 37.42229 15.48966 3871 ft 201 kts 81°
2026-05-04 20:56 37.42488 15.50692 3775 ft 201 kts 73°
2026-05-04 20:57 37.43163 15.52154 3718 ft 189 kts 46°
2026-05-04 20:57 37.44227 15.53021 3604 ft 179 kts 19°
2026-05-04 20:57 37.45417 15.53220 3499 ft 169 kts 354°
2026-05-04 20:57 37.46539 15.52986 3387 ft 159 kts 350°
2026-05-04 20:58 37.47608 15.52752 3286 ft 154 kts 349°
2026-05-04 20:58 37.48664 15.52523 3169 ft 154 kts 350°
2026-05-04 20:58 37.49710 15.52296 3079 ft 151 kts 349°
2026-05-04 20:58 37.50724 15.51961 3012 ft 151 kts 333°
2026-05-04 20:59 37.51570 15.51207 2929 ft 148 kts 311°
2026-05-04 20:59 37.52126 15.50133 2866 ft 146 kts 290°
2026-05-04 20:59 37.52337 15.48893 2784 ft 145 kts 269°
2026-05-04 20:59 37.52218 15.47643 2721 ft 144 kts 259°
2026-05-04 21:00 37.52043 15.46400 2641 ft 143 kts 259°
2026-05-04 21:00 37.51874 15.45175 2547 ft 141 kts 259°
2026-05-04 21:00 37.51706 15.43962 2446 ft 140 kts 260°
2026-05-04 21:00 37.51541 15.42764 2348 ft 138 kts 260°
2026-05-04 21:01 37.51379 15.41580 2250 ft 137 kts 261°
2026-05-04 21:01 37.51217 15.40410 2152 ft 135 kts 261°
2026-05-04 21:01 37.51041 15.39250 2087 ft 135 kts 256°
2026-05-04 21:01 37.50746 15.38145 2034 ft 135 kts 252°
2026-05-04 21:02 37.50428 15.37031 1999 ft 135 kts 252°
2026-05-04 21:02 37.50111 15.35913 2002 ft 136 kts 252°
2026-05-04 21:02 37.49792 15.34788 2001 ft 137 kts 251°
2026-05-04 21:02 37.49473 15.33661 2000 ft 136 kts 252°
2026-05-04 21:03 37.49152 15.32538 2000 ft 137 kts 251°
2026-05-04 21:03 37.48830 15.31408 2001 ft 137 kts 252°
2026-05-04 21:03 37.48632 15.30240 2002 ft 137 kts 265°
2026-05-04 21:03 37.48538 15.29052 2006 ft 136 kts 265°
2026-05-04 21:04 37.48440 15.27870 2007 ft 136 kts 265°
2026-05-04 21:04 37.48342 15.26682 2006 ft 137 kts 265°
2026-05-04 21:04 37.48244 15.25489 2007 ft 137 kts 265°
2026-05-04 21:04 37.48147 15.24301 2006 ft 137 kts 265°
2026-05-04 21:05 37.48052 15.23108 2003 ft 137 kts 265°
2026-05-04 21:05 37.47953 15.21914 2007 ft 137 kts 265°
2026-05-04 21:05 37.47853 15.20720 2008 ft 137 kts 264°
2026-05-04 21:05 37.47753 15.19520 1881 ft 138 kts 264°
2026-05-04 21:06 37.47654 15.18331 1684 ft 135 kts 265°
2026-05-04 21:06 37.47555 15.17155 1482 ft 135 kts 264°
2026-05-04 21:06 37.47491 15.16379 1372 ft 134 kts 265°
2026-05-04 21:06 37.47393 15.15211 1194 ft 134 kts 264°
2026-05-04 21:07 37.47296 15.14045 1020 ft 134 kts 265°
2026-05-04 21:07 37.47198 15.12889 840 ft 132 kts 264°
2026-05-04 21:07 37.47102 15.11747 667 ft 130 kts 264°
2026-05-04 21:07 37.47008 15.10618 479 ft 129 kts 264°
2026-05-04 21:08 37.46915 15.09495 354 ft 129 kts 264°
2026-05-04 21:08 37.46820 15.08369 213 ft 130 kts 263°
2026-05-04 21:08 37.46728 15.07246 70 ft 127 kts 264°
2026-05-04 21:08 37.46649 15.06347 51 ft 65 kts 264°
2026-05-04 21:09 37.46620 15.05986 49 ft 36 kts 264°
2026-05-04 21:09 37.46596 15.05682 50 ft 34 kts 264°
2026-05-04 21:09 37.46647 15.05466 51 ft 12 kts 340°
2026-05-04 21:09 37.46651 15.05466 51 ft 0 kts 355°
2026-05-04 21:10 37.46664 15.05465 51 ft 5 kts 359°
2026-05-04 21:10 37.46717 15.05486 51 ft 11 kts 34°
2026-05-04 21:10 37.46756 15.05598 51 ft 16 kts 83°
2026-05-04 21:11 37.46787 15.05650 51 ft 7 kts
2026-05-04 21:11 37.46795 15.05650 51 ft 1 kts
2026-05-04 21:11 37.46831 15.05646 51 ft 4 kts 353°
2026-05-04 21:11 37.46833 15.05646 51 ft 0 kts 353°